Powrót do katalogu

DELTA 1 DEB

AktywnyLEO
NORAD 10252·DEBRIS·🇺🇸 United States

Wystrzelony Jul 14, 1977 z Cape Canaveral Space Force Station

Loading…

Następne Przeloty (najbliższe 24 godziny)

TLE

ŚwieżeSource: Space-Track

Epoka: Sep 14, 2026, 14:06 UTC

1 10252U 77065CD  26257.58814377  .00000926  00000-0  37468-3 0  9998
2 10252  28.8420  80.8070 0753922  57.2127 309.8803 13.27944332351739

Śledź DELTA 1 DEB w czasie rzeczywistym z AllMySat

Download on the App Store